Change the Weather History Date:

Sunday, April 15, 2012

  Actual Average (KPOE) Record (KPOE)
Temperature  
Mean Temperature 76 °F -  
Max Temperature 82 °F 74 °F 86 °F (2001)
Min Temperature 69 °F 54 °F 37 °F (2014)
Cooling Degree Days 10    
Growing Degree Days 26 (Base 50)    
Moisture  
Dew Point 66 °F    
Average Humidity 76    
Maximum Humidity 84    
Minimum Humidity 58    
Precipitation  
Precipitation 0.00 in - - ()
Sea Level Pressure  
Sea Level Pressure 29.88 in    
Wind  
Wind Speed 12 mph (South)    
Max Wind Speed 24 mph    
Max Gust Speed 44 mph    
Visibility 10 miles    
Events Rain    
Averages and records for this station are not official NWS values.
T = Trace of Precipitation, MM = Missing Value Source: NWS Daily Summary

Daily Weather History Graph

Daily Weather History Graph

Search for Another Location

Airport or City:

Trip Planner

Search our weather history database for the weather conditions in past years. The results will help you decide how hot, cold, wet, or windy it might be!

Date:

Astronomy

Apr. 15, 2012 Rise Set
Actual Time 6:44 AM CDT 7:41 PM CDT
Civil Twilight 6:19 AM CDT 8:06 PM CDT
Nautical Twilight 5:49 AM CDT 8:35 PM CDT
Astronomical Twilight 5:19 AM CDT 9:05 PM CDT
Moon 3:21 AM CDT (4/15) 2:55 PM CDT (4/15)
Length of Visible Light 13h 46m
Length of Day
12h 57m
Waning Crescent, 27% of the Moon is Illuminated
Apr 15
Waning Crescent
Apr 21
New
Apr 29
First Quarter
May 5
Full
May 12
Last Quarter

Hourly Weather History & Observations

Time (CDT) Temp. Heat Index Dew Point Humidity Pressure Visibility Wind Dir Wind Speed Gust Speed Precip Events Conditions
12:36 AM 69.8 °F - 64.4 °F 83% 29.92 in 10.0 mi SSE 10.4 mph 26.5 mph N/A   Overcast
12:48 AM 69.8 °F - 64.4 °F 83% 29.92 in 10.0 mi SSE 8.1 mph 18.4 mph N/A   Overcast
12:53 AM 70.0 °F - 64.0 °F 81% 29.91 in 10.0 mi SSE 12.7 mph 17.3 mph N/A   Overcast
1:34 AM 69.8 °F - 64.4 °F 83% 29.91 in 10.0 mi SSE 8.1 mph - N/A   Overcast
1:53 AM 70.0 °F - 64.9 °F 84% 29.89 in 10.0 mi SSE 11.5 mph - N/A   Overcast
2:24 AM 69.8 °F - 64.4 °F 83% 29.89 in 10.0 mi SSE 10.4 mph - N/A   Overcast
2:43 AM 69.8 °F - 64.4 °F 83% 29.88 in 10.0 mi SSE 9.2 mph 19.6 mph N/A   Overcast
2:53 AM 70.0 °F - 64.9 °F 84% 29.87 in 10.0 mi SSE 11.5 mph 20.7 mph N/A   Overcast
3:29 AM 69.8 °F - 64.4 °F 83% 29.88 in 10.0 mi South 11.5 mph 18.4 mph N/A   Overcast
3:53 AM 70.0 °F - 64.9 °F 84% 29.86 in 10.0 mi SSE 11.5 mph - N/A   Overcast
4:50 AM 69.8 °F - 64.4 °F 83% 29.86 in 10.0 mi SSE 12.7 mph - N/A   Overcast
4:53 AM 70.0 °F - 64.9 °F 84% 29.86 in 10.0 mi SSE 10.4 mph 21.9 mph N/A   Overcast
5:05 AM 71.6 °F - 64.4 °F 78% 29.85 in 10.0 mi South 11.5 mph 21.9 mph N/A   Overcast
5:17 AM 71.6 °F - 64.4 °F 78% 29.86 in 10.0 mi South 10.4 mph 18.4 mph N/A   Overcast
5:41 AM 71.6 °F - 64.4 °F 78% 29.85 in 10.0 mi South 11.5 mph - N/A   Overcast
5:53 AM 71.1 °F - 64.9 °F 81% 29.85 in 10.0 mi SSE 10.4 mph 21.9 mph N/A   Overcast
6:07 AM 71.6 °F - 64.4 °F 78% 29.86 in 10.0 mi South 12.7 mph 19.6 mph N/A   Overcast
6:40 AM 71.6 °F - 64.4 °F 78% 29.87 in 10.0 mi South 13.8 mph 23.0 mph N/A   Overcast
6:53 AM 71.1 °F - 64.9 °F 81% 29.88 in 10.0 mi South 12.7 mph 23.0 mph N/A   Overcast
7:21 AM 71.6 °F - 64.4 °F 78% 29.89 in 10.0 mi South 12.7 mph 26.5 mph N/A   Overcast
7:53 AM 72.0 °F - 64.9 °F 78% 29.90 in 10.0 mi SSE 11.5 mph 20.7 mph N/A   Overcast
8:53 AM 73.0 °F - 66.0 °F 79% 29.89 in 10.0 mi South 17.3 mph 25.3 mph N/A   Mostly Cloudy
9:53 AM 75.0 °F - 64.9 °F 71% 29.89 in 10.0 mi South 15.0 mph 26.5 mph N/A   Overcast
10:18 AM 75.2 °F - 66.2 °F 73% 29.90 in 10.0 mi South 11.5 mph 28.8 mph N/A   Overcast
10:53 AM 79.0 °F - 64.0 °F 60% 29.88 in 10.0 mi South 24.2 mph 43.7 mph N/A   Mostly Cloudy
11:53 AM 81.0 °F 82.7 °F 64.9 °F 58% 29.89 in 10.0 mi South 24.2 mph 35.7 mph N/A   Scattered Clouds
12:53 PM 81.0 °F 82.7 °F 64.9 °F 58% 29.88 in 10.0 mi South 24.2 mph 36.8 mph N/A   Mostly Cloudy
1:53 PM 82.0 °F 84.5 °F 66.9 °F 60% 29.88 in 10.0 mi South 18.4 mph 33.4 mph N/A   Mostly Cloudy
2:53 PM 82.0 °F 84.5 °F 66.9 °F 60% 29.88 in 10.0 mi South 21.9 mph 29.9 mph N/A   Mostly Cloudy
3:53 PM 82.0 °F 84.9 °F 68.0 °F 62% 29.88 in 10.0 mi SSW 13.8 mph 21.9 mph 0.00 in   Overcast
4:53 PM 81.0 °F 83.8 °F 68.0 °F 65% 29.86 in 10.0 mi South 18.4 mph 25.3 mph 0.00 in   Overcast
5:12 PM 80.6 °F 83.2 °F 68.0 °F 65% 29.87 in 10.0 mi South 16.1 mph 28.8 mph N/A   Overcast
5:53 PM 79.0 °F - 68.0 °F 69% 29.87 in 10.0 mi South 10.4 mph 25.3 mph N/A   Overcast
6:04 PM 80.6 °F 83.9 °F 69.8 °F 70% 29.88 in 10.0 mi SSE 18.4 mph 27.6 mph N/A   Overcast
6:13 PM 78.8 °F - 69.8 °F 74% 29.88 in 10.0 mi South 13.8 mph 25.3 mph 0.00 in Rain Light Rain
6:53 PM 78.1 °F - 68.0 °F 71% 29.88 in 10.0 mi SSE 11.5 mph 21.9 mph 0.00 in   Overcast
7:19 PM 75.2 °F - 68.0 °F 78% 29.89 in 10.0 mi South 11.5 mph - 0.00 in Rain Light Rain
7:34 PM 75.2 °F - 68.0 °F 78% 29.89 in 10.0 mi SSE 9.2 mph - 0.00 in Rain Light Rain
7:53 PM 75.0 °F - 66.9 °F 76% 29.87 in 10.0 mi SSE 16.1 mph 21.9 mph 0.00 in Rain Light Rain
8:53 PM 75.9 °F - 66.9 °F 74% 29.89 in 10.0 mi SSE 16.1 mph 25.3 mph 0.00 in   Overcast
9:53 PM 75.0 °F - 66.9 °F 76% 29.90 in 10.0 mi South 13.8 mph 18.4 mph N/A   Overcast
10:17 PM 75.2 °F - 68.0 °F 78% 29.92 in 10.0 mi South 13.8 mph 24.2 mph N/A   Overcast
10:53 PM 73.9 °F - 68.0 °F 82% 29.92 in 10.0 mi South 11.5 mph 26.5 mph N/A   Overcast
11:53 PM 73.9 °F - 68.0 °F 82% 29.93 in 10.0 mi South 10.4 mph 18.4 mph N/A   Overcast